Regional Weather Roundup
Issued by NWS Memphis, TN

Home | Current Version | Previous Version | Text Only | Print | Product List | Glossary On
Versions: 1 2 3 4 5 6 7 8 9 10 11 12 13 14 15 16 17 18 19 20 21 22 23 24 25 26 27 28 29 30 31 32 33 34 35 36 37 38 39 40 41 42 43 44 45 46 47 48 49 50
000
ASUS44 KMEG 240310
RWRMEG
MEMPHIS CWA HOURLY WEATHER ROUNDUP
NATIONAL WEATHER SERVICE MEMPHIS TN
1000 PM CDT SUN JUL 23 2017

...WEST TENNESSEE...

CITY           SKY/WX    TMP DP  RH WIND       PRES   REMARKS
MEMPHIS INTL   TSTM      78  75  90 S3        29.93R
NWS MEMPHIS      N/A     74 N/A N/A MISG        N/A
JACKSON        LGT RAIN  75  73  93 W7        29.89F
COVINGTON      CLOUDY    75  72  88 E3        29.93R
SOMERVILLE       N/A     75  73  94 CALM      29.91R FOG
BOLIVAR        CLEAR     75  73  94 NW5       29.90S
LEXINGTON      MOCLDY    75  72  88 W5        29.88S
SELMER         PTCLDY    75  73  94 W3        29.88F
SAVANNAH       CLOUDY    79  77  94 SW6       29.86F
UNION CITY       N/A     77  72  83 SW6       29.88S
PARIS          CLOUDY    77  70  78 W3G12     29.89R
HUNTINGDON     MOCLDY    75  70  83 W5        29.88S


...EASTERN ARKANSAS...

CITY           SKY/WX    TMP DP  RH WIND       PRES   REMARKS
JONESBORO      PTCLDY    78  74  87 SE6       29.90R
WEST MEMPHIS   LGT RAIN  74  74 100 S7        29.91R
BATESVILLE     PTCLDY    82  70  65 E9        29.90R
WALNUT RIDGE   CLOUDY    81  72  74 S8        29.89R
BLYTHEVILLE    CLOUDY    78  72  81 SE6       29.91R
SEARCY         TSTM      77  76  96 N6        29.92R
STUTTGART      CLOUDY    82  64  54 S8        29.92R
PINE BLUFF     CLOUDY    79  74  84 SW3       29.90R
MONTICELLO     CLOUDY    79  74  84 SW6       29.91R


...NORTH MISSISSIPPI...

CITY           SKY/WX    TMP DP  RH WIND       PRES   REMARKS
TUPELO         CLEAR     83  73  72 CALM      29.89R
OXFORD         PTCLDY    81  70  69 W6        29.93R
BATESVILLE     CLOUDY    79  74  86 CALM      29.94R
TUNICA         LGT RAIN  70  68  94 CALM      29.95R
CLARKSDALE       N/A     81  81 100 NW7       29.93R HX  91
CORINTH        CLEAR     77  72  83 NW3       29.89R
GREENWOOD      PTCLDY    77  75  93 SW3       29.91R
COLUMBUS       CLEAR     80  76  88 CALM      29.88R
STARKVILLE     PTCLDY    79  73  83 W6        29.91R
GOLDEN TRIANGL PTCLDY    84  70  61 CALM      29.86R


...SOUTHEAST MISSOURI...

CITY           SKY/WX    TMP DP  RH WIND       PRES   REMARKS
KENNETT        CLOUDY    79  73  83 SW5       29.88R
MALDEN         CLOUDY    81  70  69 S3        29.89R
WEST PLAINS    CLOUDY    76  67  73 CALM      29.95R
POPLAR BLUFF   MOCLDY    80  76  87 S7        29.87R
CAPE GIRARDEAU MOCLDY    77  71  82 CALM      29.87R


...NORTHWEST ALABAMA...

CITY           SKY/WX    TMP DP  RH WIND       PRES   REMARKS
MUSCLE SHOALS  PTCLDY    82  73  74 S5        29.89S


...MIDDLE TENNESSEE...

CITY           SKY/WX    TMP DP  RH WIND       PRES   REMARKS
NASHVILLE      CLOUDY    80  70  71 E14       29.91R THUNDER
CLARKSVILLE    PTCLDY    81  74  79 W5        29.89R
COLUMBIA       CLEAR     81  77  89 CALM      29.87S


...WESTERN KENTUCKY...

CITY           SKY/WX    TMP DP  RH WIND       PRES   REMARKS
PADUCAH        PTCLDY    76  71  85 CALM      29.87R
FORT CAMPBELL  PTCLDY    81  75  83 CALM      29.89R


...CENTRAL ARKANSAS...

CITY           SKY/WX    TMP DP  RH WIND       PRES   REMARKS
LITTLE ROCK    LGT RAIN  80  73  79 W8        29.89R


SKY/WX REPORTED AS FAIR MEANS FEW OR NO CLOUDS BELOW
12 THOUSAND FEET.





USA.gov is the U.S. government's official web portal to all federal, state and local government web resources and services.